Wilton, MN

11:56 PM CDT on September 29, 2016 (GMT -0500)
Bemidji-Beltrami County

Weather History for KBJI - October, 2013

Change the Weather History Date:

Saturday, October 12, 2013

  Actual Average Record
Temperature  
Mean Temperature 46 °F -  
Max Temperature 54 °F 53 °F 80 °F (1956)
Min Temperature 39 °F 33 °F 19 °F (2012)
Degree Days  
Heating Degree Days 18    
Moisture  
Dew Point 44 °F    
Average Humidity 88    
Maximum Humidity 96    
Minimum Humidity 75    
Precipitation  
Precipitation 0.00 in - - ()
Sea Level Pressure  
Sea Level Pressure 29.75 in    
Wind  
Wind Speed 13 mph (WSW)    
Max Wind Speed 22 mph    
Max Gust Speed 32 mph    
Visibility 8 miles    
Events Rain    
Averages and records for this station are not official NWS values.
T = Trace of Precipitation, MM = Missing Value Source: NWS Daily Summary

Daily Weather History Graph

Daily Weather History Graph

Search for Another Location

Airport or City:

Trip Planner

Search our weather history database for the weather conditions in past years. The results will help you decide how hot, cold, wet, or windy it might be!

Date:

Astronomy

Oct. 12, 2013 Rise Set
Actual Time 7:34 AM CDT 6:36 PM CDT
Civil Twilight 7:03 AM CDT 7:07 PM CDT
Nautical Twilight 6:28 AM CDT 7:43 PM CDT
Astronomical Twilight 5:52 AM CDT 8:18 PM CDT
Moon 3:10 PM CDT (10/12) 12:13 AM CDT (10/12)
Length of Visible Light 12h 04m
Length of Day
11h 02m
First Quarter, 59% of the Moon is Illuminated
Oct 12
First Quarter
Oct 18
Full
Oct 26
Last Quarter
Nov 3
New
Nov 9
First Quarter

Hourly Weather History & Observations

Time (CDT) Temp. Windchill Dew Point Humidity Pressure Visibility Wind Dir Wind Speed Gust Speed Precip Events Conditions
12:12 AM 54.5 °F - 49.3 °F 83% 29.48 in 10.0 mi South 12.7 mph 20.7 mph N/A   Mostly Cloudy
12:32 AM 53.6 °F - 48.2 °F 82% 29.48 in 10.0 mi South 11.5 mph 26.5 mph N/A   Overcast
12:52 AM 53.1 °F - 48.2 °F 84% 29.49 in 10.0 mi South 18.4 mph 24.2 mph N/A   Overcast
1:12 AM 52.5 °F - 47.5 °F 83% 29.50 in 10.0 mi SSW 17.3 mph 24.2 mph N/A   Overcast
1:32 AM 51.4 °F - 45.9 °F 81% 29.51 in 10.0 mi South 21.9 mph 32.2 mph N/A   Overcast
1:52 AM 50.5 °F - 45.0 °F 81% 29.51 in 10.0 mi South 16.1 mph 27.6 mph N/A   Overcast
2:13 AM 50.2 °F - 45.1 °F 83% 29.51 in 10.0 mi South 15.0 mph 19.6 mph N/A   Overcast
2:32 AM 50.0 °F - 44.6 °F 82% 29.52 in 10.0 mi SSW 15.0 mph 25.3 mph N/A   Overcast
2:52 AM 49.8 °F - 44.2 °F 81% 29.52 in 10.0 mi South 12.7 mph 17.3 mph N/A   Overcast
3:13 AM 49.5 °F - 44.4 °F 83% 29.53 in 10.0 mi South 13.8 mph 19.6 mph N/A   Overcast
3:32 AM 48.7 °F - 44.6 °F 86% 29.53 in 10.0 mi South 17.3 mph 24.2 mph N/A   Overcast
3:52 AM 48.6 °F - 44.2 °F 85% 29.54 in 10.0 mi South 17.3 mph 26.5 mph N/A   Overcast
4:12 AM 48.2 °F - 44.2 °F 86% 29.54 in 10.0 mi South 15.0 mph 21.9 mph N/A   Overcast
4:32 AM 48.0 °F - 44.6 °F 88% 29.54 in 10.0 mi South 17.3 mph 24.2 mph N/A   Overcast
4:53 AM 47.8 °F - 44.6 °F 89% 29.55 in 10.0 mi South 12.7 mph 24.2 mph N/A   Overcast
5:13 AM 48.0 °F - 44.4 °F 87% 29.56 in 10.0 mi SSW 17.3 mph 21.9 mph N/A   Overcast
5:32 AM 48.2 °F - 44.6 °F 87% 29.56 in 10.0 mi South 15.0 mph 18.4 mph N/A   Overcast
5:52 AM 47.8 °F - 44.6 °F 89% 29.56 in 10.0 mi SSW 11.5 mph 21.9 mph N/A   Overcast
6:12 AM 47.7 °F - 44.8 °F 90% 29.57 in 10.0 mi South 10.4 mph 23.0 mph N/A   Overcast
6:32 AM 47.7 °F - 45.0 °F 90% 29.57 in 10.0 mi South 13.8 mph - N/A   Overcast
6:53 AM 47.7 °F - 44.8 °F 90% 29.58 in 10.0 mi South 10.4 mph 17.3 mph N/A   Overcast
7:12 AM 47.8 °F - 44.6 °F 89% 29.58 in 10.0 mi SSW 12.7 mph 17.3 mph N/A   Overcast
7:32 AM 48.0 °F - 44.6 °F 88% 29.58 in 10.0 mi SSW 13.8 mph 18.4 mph N/A   Overcast
7:53 AM 48.2 °F - 44.6 °F 87% 29.59 in 10.0 mi SSW 13.8 mph 20.7 mph N/A   Overcast
8:12 AM 48.2 °F - 44.6 °F 87% 29.60 in 10.0 mi SSW 10.4 mph 19.6 mph N/A   Overcast
8:32 AM 47.5 °F - 45.3 °F 92% 29.61 in 4.0 mi South 10.4 mph - N/A   Overcast
8:52 AM 47.3 °F - 45.7 °F 94% 29.62 in 4.0 mi South 11.5 mph - N/A   Overcast
9:13 AM 47.1 °F - 45.7 °F 95% 29.62 in 2.5 mi South 11.5 mph 16.1 mph N/A   Overcast
9:32 AM 47.3 °F - 46.0 °F 95% 29.63 in 2.5 mi South 6.9 mph - N/A   Overcast
9:52 AM 47.5 °F - 46.4 °F 96% 29.64 in 4.0 mi SSW 9.2 mph 16.1 mph N/A   Overcast
10:12 AM 48.2 °F - 46.6 °F 94% 29.65 in 10.0 mi SSW 8.1 mph - N/A   Overcast
10:32 AM 48.6 °F - 47.1 °F 95% 29.66 in 5.0 mi SW 9.2 mph - N/A   Overcast
10:52 AM 48.7 °F - 47.3 °F 95% 29.66 in 3.0 mi SW 9.2 mph - N/A   Overcast
11:13 AM 48.4 °F - 47.3 °F 96% 29.67 in 1.8 mi WSW 10.4 mph 17.3 mph N/A   Heavy Drizzle
11:32 AM 48.6 °F - 47.3 °F 95% 29.68 in 1.8 mi West 11.5 mph - N/A   Drizzle
11:52 AM 48.4 °F - 46.8 °F 94% 29.70 in 2.0 mi West 12.7 mph - N/A   Drizzle
12:12 PM 48.6 °F - 47.3 °F 95% 29.71 in 2.5 mi West 10.4 mph - N/A   Drizzle
12:32 PM 48.4 °F - 46.8 °F 94% 29.73 in 2.5 mi West 13.8 mph - N/A   Light Drizzle
12:53 PM 47.5 °F - 45.7 °F 93% 29.74 in 3.0 mi West 17.3 mph 23.0 mph N/A   Light Drizzle
1:12 PM 46.6 °F - 45.1 °F 95% 29.75 in 3.0 mi West 18.4 mph - N/A Rain Rain
1:32 PM 46.6 °F - 45.1 °F 95% 29.76 in 5.0 mi West 12.7 mph 16.1 mph N/A   Light Drizzle
1:52 PM 46.6 °F - 45.0 °F 94% 29.77 in 4.0 mi West 12.7 mph 19.6 mph N/A   Drizzle
2:12 PM 46.4 °F 41.1 °F 44.8 °F 94% 29.79 in 4.0 mi West 11.5 mph - N/A   Drizzle
2:32 PM 46.4 °F 39.8 °F 44.1 °F 92% 29.80 in 4.0 mi WNW 16.1 mph 23.0 mph N/A   Drizzle
2:52 PM 46.0 °F 40.2 °F 44.2 °F 93% 29.81 in 4.0 mi West 12.7 mph - N/A   Light Drizzle
3:12 PM 46.0 °F 39.6 °F 43.9 °F 92% 29.83 in 7.0 mi West 15.0 mph 20.7 mph N/A   Drizzle
3:32 PM 45.9 °F 39.7 °F 43.9 °F 93% 29.84 in 7.0 mi West 13.8 mph 20.7 mph N/A   Drizzle
3:52 PM 46.8 °F - 44.1 °F 90% 29.85 in 10.0 mi West 13.8 mph 18.4 mph N/A   Overcast
4:12 PM 46.0 °F 40.2 °F 43.7 °F 92% 29.87 in 10.0 mi West 12.7 mph - N/A   Drizzle
4:32 PM 45.7 °F 40.2 °F 43.3 °F 92% 29.88 in 7.0 mi West 11.5 mph - N/A   Overcast
4:52 PM 45.5 °F 39.9 °F 43.7 °F 93% 29.89 in 7.0 mi West 11.5 mph - N/A Rain Light Rain
5:12 PM 45.5 °F 39.2 °F 43.2 °F 92% 29.90 in 10.0 mi West 13.8 mph 20.7 mph N/A Rain Rain
5:32 PM 45.7 °F 39.8 °F 43.5 °F 92% 29.92 in 10.0 mi West 12.7 mph - N/A   Drizzle
5:52 PM 45.5 °F 39.6 °F 42.8 °F 90% 29.93 in 10.0 mi West 12.7 mph 19.6 mph N/A   Overcast
6:12 PM 45.5 °F 39.2 °F 42.8 °F 90% 29.94 in 10.0 mi West 13.8 mph 23.0 mph N/A Rain Light Rain
6:32 PM 45.5 °F 39.2 °F 41.9 °F 87% 29.96 in 10.0 mi West 13.8 mph 18.4 mph N/A   Overcast
6:52 PM 45.1 °F 38.8 °F 42.1 °F 89% 29.97 in 10.0 mi WNW 13.8 mph 19.6 mph N/A   Overcast
7:12 PM 44.8 °F 37.7 °F 41.5 °F 88% 29.99 in 10.0 mi WNW 16.1 mph 23.0 mph N/A   Overcast
7:32 PM 44.6 °F 38.8 °F 41.2 °F 88% 30.00 in 10.0 mi WNW 11.5 mph 17.3 mph N/A   Overcast
7:53 PM 44.6 °F 38.8 °F 40.6 °F 86% 30.01 in 10.0 mi WNW 11.5 mph - N/A   Overcast
8:12 PM 44.6 °F 39.2 °F 40.1 °F 84% 30.02 in 10.0 mi West 10.4 mph - N/A   Overcast
8:32 PM 44.4 °F 39.5 °F 39.9 °F 84% 30.03 in 10.0 mi WNW 9.2 mph - N/A   Overcast
8:53 PM 44.4 °F 39.0 °F 39.4 °F 82% 30.04 in 10.0 mi West 10.4 mph - N/A   Overcast
9:12 PM 44.6 °F 39.2 °F 39.2 °F 81% 30.05 in 10.0 mi West 10.4 mph - N/A   Overcast
9:32 PM 44.6 °F 39.7 °F 38.3 °F 79% 30.05 in 10.0 mi WNW 9.2 mph - N/A   Overcast
9:52 PM 44.6 °F 40.2 °F 37.2 °F 75% 30.06 in 10.0 mi WNW 8.1 mph - N/A   Overcast
10:12 PM 43.7 °F 39.7 °F 37.4 °F 78% 30.07 in 10.0 mi West 6.9 mph - N/A   Overcast
10:32 PM 43.0 °F 39.5 °F 38.1 °F 83% 30.08 in 10.0 mi West 5.8 mph - N/A   Overcast
10:52 PM 43.3 °F 39.2 °F 37.4 °F 80% 30.09 in 10.0 mi West 6.9 mph - N/A   Overcast
11:12 PM 41.4 °F 37.6 °F 36.9 °F 84% 30.11 in 10.0 mi West 5.8 mph - N/A   Mostly Cloudy
11:32 PM 39.4 °F 34.5 °F 36.5 °F 89% 30.12 in 10.0 mi West 6.9 mph - N/A   Clear
11:52 PM 39.2 °F 33.6 °F 36.5 °F 90% 30.13 in 10.0 mi West 8.1 mph - N/A   Scattered Clouds